Latrobe, PA

10:00 AM EDT on June 23, 2017 (GMT -0400)
Arnold Palmer Regional

Weather History for KLBE - June, 2014

Change the Weather History Date:

Friday, June 6, 2014

  Actual Average Record
Temperature  
Mean Temperature 60 °F -  
Max Temperature 73 °F 74 °F 89 °F (1999)
Min Temperature 46 °F 54 °F 44 °F (2012)
Degree Days  
Heating Degree Days 6    
Growing Degree Days 10 (Base 50)    
Moisture  
Dew Point 50 °F    
Average Humidity 83    
Maximum Humidity 100    
Minimum Humidity 47    
Precipitation  
Precipitation 0.00 in - - ()
Sea Level Pressure  
Sea Level Pressure 30.00 in    
Wind  
Wind Speed 1 mph (North)    
Max Wind Speed 7 mph    
Max Gust Speed -    
Visibility 12 miles    
Events      
Averages and records for this station are not official NWS values.
T = Trace of Precipitation, MM = Missing Value Source: NWS Daily Summary

Daily Weather History Graph

Daily Weather History Graph

Search for Another Location

Airport or City:

Trip Planner

Search our weather history database for the weather conditions in past years. The results will help you decide how hot, cold, wet, or windy it might be!

Date:

Astronomy

Jun. 06, 2014 Rise Set
Actual Time 5:48 AM EDT 8:44 PM EDT
Civil Twilight 5:15 AM EDT 9:17 PM EDT
Nautical Twilight 4:34 AM EDT 9:58 PM EDT
Astronomical Twilight 3:46 AM EDT 10:46 PM EDT
Moon 2:01 PM EDT (6/6) 1:39 AM EDT (6/6)
Length of Visible Light 16h 01m
Length of Day
14h 56m
First Quarter, 58% of the Moon is Illuminated
Jun 6
First Quarter
Jun 13
Full
Jun 19
Last Quarter
Jun 27
New
Jul 5
First Quarter

Hourly Weather History & Observations

Time (EDT) Temp. Dew Point Humidity Pressure Visibility Wind Dir Wind Speed Gust Speed Precip Events Conditions
12:15 AM 51.8 °F 50.0 °F 94% 29.97 in 10.0 mi Calm Calm - 0.00 in   Clear
12:35 AM 51.8 °F 50.0 °F 94% 29.96 in 10.0 mi Calm Calm - 0.00 in   Clear
12:55 AM 50.0 °F 48.2 °F 94% 29.96 in 10.0 mi Calm Calm - 0.00 in   Clear
1:15 AM 50.0 °F 48.2 °F 94% 29.95 in 10.0 mi Calm Calm - 0.00 in   Clear
1:35 AM 48.2 °F 48.2 °F 100% 29.95 in 10.0 mi Calm Calm - 0.00 in   Clear
1:55 AM 48.2 °F 48.2 °F 100% 29.95 in 10.0 mi Calm Calm - 0.00 in   Clear
2:15 AM 48.2 °F 48.2 °F 100% 29.95 in 10.0 mi Calm Calm - 0.00 in   Clear
2:35 AM 48.2 °F 48.2 °F 100% 29.95 in 10.0 mi Calm Calm - 0.00 in   Clear
2:55 AM 46.4 °F 46.4 °F 100% 29.96 in 10.0 mi Calm Calm - 0.00 in   Clear
3:15 AM 46.4 °F 46.4 °F 100% 29.96 in 10.0 mi Calm Calm - 0.00 in   Clear
3:35 AM 48.2 °F 48.2 °F 100% 29.96 in 10.0 mi Calm Calm - 0.00 in   Clear
3:55 AM 48.2 °F 48.2 °F 100% 29.96 in 10.0 mi Calm Calm - 0.00 in   Clear
4:15 AM 48.2 °F 46.4 °F 93% 29.96 in 10.0 mi Calm Calm - 0.00 in   Clear
4:35 AM 46.4 °F 46.4 °F 100% 29.97 in 10.0 mi Calm Calm - 0.00 in   Clear
4:55 AM 48.2 °F 48.2 °F 100% 29.98 in 10.0 mi Calm Calm - 0.00 in   Clear
5:15 AM 48.2 °F 48.2 °F 100% 29.98 in 10.0 mi Calm Calm - 0.00 in   Clear
5:35 AM 48.2 °F 48.2 °F 100% 29.99 in 10.0 mi Calm Calm - 0.00 in   Clear
5:55 AM 46.4 °F 46.4 °F 100% 30.00 in 10.0 mi Calm Calm - 0.00 in   Clear
6:15 AM 46.4 °F 46.4 °F 100% 30.00 in 20.0 mi Calm Calm - N/A   Scattered Clouds
6:50 AM 48.2 °F 48.2 °F 100% 30.01 in 20.0 mi Calm Calm - N/A   Scattered Clouds
7:50 AM 51.8 °F 51.8 °F 100% 30.02 in 20.0 mi Calm Calm - N/A   Clear
8:50 AM 55.4 °F 48.2 °F 77% 30.04 in 20.0 mi Calm Calm - N/A   Clear
9:50 AM 59.0 °F 50.0 °F 72% 30.05 in 20.0 mi Calm Calm - N/A   Partly Cloudy
11:55 AM 64.4 °F 50.0 °F 59% 30.03 in 20.0 mi Variable 5.8 mph - N/A   Partly Cloudy
12:48 PM 66.2 °F 50.0 °F 56% 30.03 in 20.0 mi Variable 5.8 mph - N/A   Clear
1:47 PM 68.0 °F 50.0 °F 52% 30.01 in 20.0 mi NNW 6.9 mph - N/A   Clear
2:50 PM 69.8 °F 51.8 °F 53% 30.00 in 20.0 mi Variable 3.5 mph - N/A   Clear
3:50 PM 71.6 °F 51.8 °F 50% 30.01 in 20.0 mi Calm Calm - N/A   Clear
4:45 PM 71.6 °F 51.8 °F 50% 30.00 in 10.0 mi NW 4.6 mph - N/A   Clear
5:45 PM 71.6 °F 51.8 °F 50% 30.00 in 10.0 mi Calm Calm - N/A   Scattered Clouds
6:45 PM 73.4 °F 51.8 °F 47% 30.00 in 10.0 mi North 6.9 mph - N/A   Scattered Clouds
7:21 PM 71.6 °F 51.8 °F 50% 30.00 in 10.0 mi North 4.6 mph - N/A   Scattered Clouds
7:45 PM 71.6 °F 51.8 °F 50% 30.01 in 10.0 mi Calm Calm - N/A   Clear
8:45 PM 68.0 °F 53.6 °F 60% 30.02 in 10.0 mi Calm Calm - N/A   Clear
10:15 PM 60.8 °F 55.4 °F 82% 30.03 in 10.0 mi Calm Calm - 0.00 in   Clear
10:35 PM 59.0 °F 55.4 °F 88% 30.04 in 10.0 mi Calm Calm - 0.00 in   Clear
10:55 PM 59.0 °F 55.4 °F 88% 30.05 in 10.0 mi Calm Calm - 0.00 in   Clear
11:15 PM 57.2 °F 55.4 °F 94% 30.05 in 10.0 mi Calm Calm - 0.00 in   Clear
11:35 PM 57.2 °F 53.6 °F 88% 30.06 in 10.0 mi SSE 3.5 mph - 0.00 in   Clear
11:55 PM 57.2 °F 53.6 °F 88% 30.05 in 10.0 mi Calm Calm - 0.00 in   Clear